Temp
60 60 60 59 59 60 60 60 59 59 59 60 60 60 60 61 61 73 71 74 75 69 70 82 82 83 84 83 85 86 72 69 72 72 75 82 78 86 87 85 89 91 90 93 97
60 60 60 59 59 59 59 59 59 59 59 59 60 60 60 60 68 72 73 68 68 70 79 79 77 80 79 80 81 77 72 73 81 82 79 80 79 80 77 79 82 88 93 95 96
59 59 59 59 59 59 59 59 59 59 59 59 59 59 60 64 69 76 70 69 69 73 81 80 80 79 76 80 79 77 71 80 81 83 83 80 81 79 76 75 81 83 86 90 92
59 59 59 59 59 59 58 58 59 59 59 59 59 59 60 70 64 79 71 70 71 81 80 78 77 74 73 72 79 70 77 78 80 82 78 77 82 76 77 79 82 86 86 88 90
58 59 59 58 58 58 58 58 58 59 58 58 58 59 67 70 74 81 72 74 81 80 79 77 74 73 70 73 73 71 75 76 78 79 78 80 77 77 77 82 82 84 86 86 89
58 58 58 58 58 58 58 58 58 58 58 58 59 59 68 66 82 83 82 80 81 81 78 79 75 76 72 71 70 74 74 74 77 77 78 75 77 79 81 81 79 82 84 86 88
57 57 57 57 57 58 58 58 57 57 58 59 59 67 67 73 83 84 82 83 83 81 77 80 80 75 73 69 74 72 66 72 74 75 74 77 70 73 82 79 78 78 81 83 84
57 57 57 57 57 57 58 57 57 57 58 59 60 68 68 82 86 82 84 82 84 84 81 82 82 76 72 74 70 66 67 62 74 70 74 72 64 75 77 76 75 74 73 79 81
57 57 56 56 56 57 57 56 59 59 59 60 65 67 68 76 77 83 85 79 81 81 81 80 79 72 71 66 64 65 59 61 65 71 70 69 66 76 77 75 73 74 72 74 79
56 56 56 56 56 56 55 56 59 61 65 70 71 63 74 72 77 80 84 81 76 75 73 73 72 67 68 65 55 59 58 60 59 68 68 66 66 73 76 75 74 75 74 73 75
56 55 55 55 56 55 61 71 68 66 67 67 67 66 70 77 80 79 82 78 76 72 64 68 63 60 64 64 63 61 59 58 63 67 64 63 65 69 74 74 74 75 74 75 73
55 55 55 55 55 55 66 72 67 69 63 71 70 70 74 75 69 75 81 70 68 63 66 63 58 66 65 64 61 60 58 58 63 66 63 62 62 68 72 73 75 75 75 75 74
54 55 55 55 55 62 74 69 76 73 64 67 71 70 73 75 68 70 77 73 66 63 63 59 63 66 63 61 58 60 57 57 56 62 64 62 59 65 70 72 74 76 75 75 74
54 55 55 54 59 76 72 74 77 74 60 61 66 71 73 74 66 77 79 73 67 62 63 62 67 62 61 59 61 54 63 59 57 56 51 62 48 61 67 68 68 71 72 74 74
54 55 55 52 73 74 72 77 78 71 46 65 67 80 75 69 70 71 79 73 63 64 62 60 61 60 58 60 64 58 62 60 58 55 54 56 52 59 64 62 65 69 72 73 75
54 54 55 65 73 74 77 75 72 56 43 59 67 65 65 68 68 71 70 74 73 65 66 63 71 65 63 65 64 65 60 59 59 56 46 55 54 57 62 63 66 70 72 73 73
53 54 58 72 72 77 76 72 55 48 61 57 59 63 63 62 64 64 63 62 58 53 54 61 62 66 66 60 62 60 55 46 46 47 45 54 50 56 63 66 68 68 70 73 74
52 52 60 74 77 74 73 63 46 56 56 62 61 62 57 62 62 61 59 57 64 60 55 51 49 61 65 61 58 58 55 46 35 42 49 55 46 58 65 68 69 70 70 70 72
50 71 73 76 74 74 66 50 56 56 59 57 60 56 57 59 57 58 58 58 63 63 50 49 50 63 61 64 62 57 49 58 48 50 45 50 56 63 66 65 66 67 67 69 70
68 72 75 73 73 69 62 52 57 61 60 59 51 56 52 56 54 55 55 59 57 63 64 57 46 60 61 61 62 57 62 46 46 32 34 47 50 53 58 60 64 65 67 69 70
67 67 70 74 71 66 54 59 58 64 62 56 54 54 55 54 56 54 54 59 61 60 62 60 52 52 56 53 52 54 51 51 50 47 39 40 50 61 59 62 62 65 67 68 70
66 63 72 74 62 63 58 58 51 60 64 60 58 56 54 56 54 53 53 58 62 61 54 59 52 46 50 61 62 57 54 54 40 43 47 47 47 64 63 64 64 65 67 70 70
62 66 73 69 54 57 61 58 58 57 58 57 54 57 57 53 48 54 54 61 61 59 55 56 49 41 46 53 53 50 54 54 52 50 42 39 47 64 66 65 66 65 67 68 69
62 59 66 67 61 54 53 54 52 59 57 58 56 57 54 51 56 50 53 56 58 59 53 54 49 43 39 46 50 45 50 53 50 38 43 46 50 57 61 61 64 65 66 67 68
61 56 54 55 58 52 52 53 52 50 57 57 54 53 52 47 51 50 54 56 57 56 55 51 42 47 49 50 50 48 49 51 48 49 44 49 50 56 60 62 64 66 66 66 66
56 56 61 56 53 50 49 53 50 52 50 52 50 52 53 47 49 47 51 51 50 55 52 54 42 46 44 50 49 44 48 51 52 52 52 53 52 63 65 66 65 65 65 65 66
57 58 54 52 53 49 52 51 51 51 53 54 52 50 48 51 54 55 55 54 53 50 49 47 41 39 36 48 46 40 48 51 53 56 55 49 57 63 62 62 63 64 65 65 65
MSLP
1020.80 1020.46 1020.10 1019.80 1019.48 1019.15 1018.80 1018.49 1018.27 1017.99 1017.72 1017.39 1017.03 1016.73 1016.43 1016.08 1015.51 1014.33 1012.94 1012.64 1012.48 1012.66 1012.61 1011.41 1010.96 1010.40 1010.04 1008.88 1008.70 1008.34 1007.25 1005.39 1004.85 1005.29 1005.34 1005.60 1005.91 1005.47 1005.72 1005.56 1005.18 1004.89 1005.15 1005.13 1005.47
1020.63 1020.27 1019.94 1019.61 1019.23 1018.90 1018.62 1018.29 1017.99 1017.79 1017.59 1017.31 1017.02 1016.71 1016.31 1015.91 1014.63 1012.81 1012.26 1012.65 1012.83 1012.73 1011.72 1010.77 1010.03 1009.96 1009.14 1008.52 1008.28 1007.72 1006.19 1005.00 1005.02 1004.78 1005.04 1005.46 1005.71 1005.78 1006.24 1005.73 1005.62 1005.10 1005.07 1005.31 1005.33
1020.49 1020.09 1019.69 1019.34 1018.98 1018.67 1018.38 1018.09 1017.74 1017.53 1017.36 1017.12 1016.91 1016.58 1016.20 1015.68 1013.54 1011.38 1012.18 1012.59 1012.73 1012.47 1011.52 1011.02 1010.30 1009.66 1008.72 1008.17 1007.80 1007.28 1005.87 1005.30 1005.15 1005.35 1005.74 1005.57 1005.45 1006.43 1006.25 1005.58 1004.96 1005.11 1005.70 1005.80 1005.45
1020.36 1019.92 1019.52 1019.13 1018.73 1018.38 1018.07 1017.82 1017.50 1017.23 1017.07 1016.91 1016.71 1016.34 1015.86 1014.68 1011.80 1011.53 1012.33 1012.50 1012.46 1011.79 1011.08 1010.43 1009.89 1009.12 1008.41 1007.90 1007.50 1007.41 1006.64 1006.41 1005.85 1006.03 1006.53 1006.10 1005.90 1006.18 1006.17 1005.84 1005.92 1005.61 1006.19 1006.12 1005.49
1020.15 1019.72 1019.32 1018.93 1018.57 1018.19 1017.84 1017.53 1017.22 1016.96 1016.85 1016.67 1016.51 1016.17 1015.18 1013.07 1010.94 1011.63 1012.28 1012.37 1011.86 1011.42 1010.51 1009.92 1009.32 1008.92 1008.23 1007.99 1008.03 1007.62 1006.72 1007.00 1007.15 1006.88 1006.90 1006.55 1005.99 1006.13 1005.86 1006.07 1006.53 1006.10 1006.60 1006.06 1005.81
1019.95 1019.49 1019.10 1018.70 1018.31 1017.89 1017.57 1017.27 1016.96 1016.74 1016.62 1016.49 1016.30 1016.05 1014.42 1011.85 1011.11 1011.37 1011.52 1011.75 1011.27 1010.87 1010.52 1010.10 1009.58 1009.49 1008.88 1008.63 1008.37 1007.65 1007.44 1007.31 1007.19 1006.88 1006.61 1006.38 1005.80 1005.75 1005.43 1006.18 1006.22 1005.64 1005.73 1005.83 1005.67
1019.72 1019.29 1018.87 1018.45 1018.03 1017.60 1017.22 1016.86 1016.64 1016.45 1016.36 1016.26 1016.12 1015.36 1013.46 1011.05 1011.14 1011.41 1011.48 1011.07 1011.15 1010.90 1010.22 1010.21 1010.04 1009.67 1009.42 1008.63 1008.83 1008.63 1008.31 1007.47 1006.92 1006.68 1006.34 1006.35 1005.50 1004.85 1005.15 1006.00 1005.94 1006.03 1005.37 1005.40 1005.39
1019.58 1019.12 1018.56 1018.05 1017.59 1017.11 1016.65 1016.27 1015.97 1015.83 1015.89 1015.93 1015.90 1014.78 1011.65 1011.10 1011.19 1011.18 1011.03 1010.84 1010.94 1010.85 1010.70 1010.42 1010.18 1009.65 1009.43 1009.28 1008.95 1008.47 1007.81 1006.65 1005.52 1006.66 1006.39 1006.79 1004.38 1004.58 1005.56 1006.11 1006.07 1006.34 1006.35 1005.77 1005.67
1019.35 1018.84 1018.37 1017.90 1017.36 1016.82 1016.36 1015.89 1015.36 1015.24 1015.49 1015.66 1015.12 1013.83 1010.66 1011.27 1010.88 1010.48 1010.60 1010.22 1010.42 1010.55 1010.56 1010.69 1010.21 1009.54 1009.51 1008.85 1007.99 1007.73 1006.58 1006.03 1005.83 1006.70 1006.43 1006.37 1004.75 1004.45 1005.71 1006.16 1006.04 1005.98 1006.33 1006.05 1005.59
1019.14 1018.60 1018.10 1017.67 1017.20 1016.71 1016.17 1015.77 1015.53 1015.12 1015.10 1014.72 1014.08 1013.19 1010.82 1010.26 1010.46 1010.48 1010.42 1010.49 1010.24 1010.21 1010.24 1010.21 1009.64 1009.12 1008.70 1008.24 1006.87 1006.25 1006.73 1006.64 1006.57 1006.31 1006.61 1006.04 1005.23 1004.95 1005.15 1005.49 1005.44 1005.52 1005.68 1005.95 1005.92
1018.80 1018.24 1017.70 1017.30 1016.88 1016.50 1015.64 1015.05 1014.79 1014.00 1013.53 1012.27 1011.83 1011.34 1010.74 1010.56 1010.55 1010.03 1010.05 1010.16 1010.13 1009.97 1009.39 1009.55 1009.02 1008.02 1007.67 1008.33 1008.30 1008.04 1007.62 1007.03 1006.91 1007.07 1007.17 1006.27 1005.26 1004.79 1004.76 1004.62 1004.46 1004.43 1004.75 1005.22 1005.65
1018.50 1017.94 1017.41 1016.90 1016.52 1016.21 1015.48 1013.55 1014.02 1013.92 1012.32 1011.65 1011.36 1011.05 1010.73 1010.59 1009.85 1009.60 1009.94 1009.82 1009.64 1009.18 1009.36 1009.37 1008.39 1008.03 1008.72 1008.92 1008.81 1008.37 1007.83 1007.25 1007.12 1007.45 1007.41 1006.43 1005.12 1004.55 1004.16 1003.75 1003.60 1003.58 1003.73 1004.39 1005.22
1018.23 1017.59 1017.01 1016.55 1016.12 1015.50 1013.99 1014.08 1013.96 1013.74 1012.01 1010.92 1010.62 1010.16 1009.92 1010.27 1009.34 1009.00 1009.34 1009.17 1009.09 1008.84 1008.72 1008.51 1008.06 1008.45 1008.85 1008.60 1008.51 1008.03 1007.77 1007.49 1007.57 1007.50 1007.14 1005.88 1004.45 1003.03 1003.11 1003.21 1003.39 1003.38 1003.88 1004.27 1004.82
1017.92 1017.31 1016.83 1016.31 1016.14 1014.44 1013.72 1014.02 1013.68 1013.70 1011.24 1010.26 1009.76 1009.42 1009.78 1009.58 1009.04 1008.86 1009.00 1008.96 1008.73 1008.47 1008.36 1008.30 1008.15 1008.74 1008.57 1008.33 1008.32 1007.64 1007.59 1008.19 1007.91 1007.48 1005.97 1005.62 1003.69 1002.84 1002.64 1002.65 1003.23 1003.27 1003.71 1004.09 1004.57
1017.60 1017.00 1016.65 1016.49 1014.77 1013.80 1014.18 1013.86 1013.67 1013.55 1010.42 1009.49 1009.05 1009.18 1009.15 1009.06 1008.78 1008.48 1008.79 1008.70 1008.34 1008.11 1008.87 1007.55 1007.98 1008.23 1008.09 1007.93 1008.06 1007.78 1007.96 1008.09 1007.83 1007.24 1006.34 1005.17 1003.98 1002.31 1002.61 1002.55 1002.92 1003.27 1003.73 1004.14 1004.54
1017.36 1016.81 1016.41 1015.60 1014.66 1014.13 1014.03 1013.92 1013.58 1011.99 1009.37 1008.97 1008.71 1008.66 1008.60 1008.53 1008.50 1008.36 1008.66 1008.85 1008.35 1008.07 1007.73 1007.66 1007.54 1008.10 1007.83 1007.88 1008.08 1007.98 1008.15 1007.67 1007.30 1006.58 1005.20 1003.73 1003.31 1001.58 1001.57 1002.20 1002.75 1003.35 1003.51 1003.99 1004.62
1017.09 1016.56 1016.25 1014.97 1013.93 1014.11 1013.86 1013.10 1011.74 1010.03 1009.61 1008.83 1008.58 1008.80 1008.61 1008.36 1008.20 1008.36 1008.04 1007.87 1007.85 1007.47 1007.04 1006.81 1006.83 1007.40 1007.93 1007.69 1008.00 1008.17 1007.72 1006.43 1005.42 1004.69 1003.87 1004.06 1003.88 1002.50 1002.54 1002.88 1002.92 1003.41 1003.81 1003.90 1004.22
1016.71 1016.36 1015.60 1014.68 1014.31 1014.22 1013.37 1012.06 1010.55 1009.15 1008.97 1009.36 1009.22 1008.89 1008.55 1008.12 1008.13 1008.18 1008.16 1007.52 1007.35 1007.62 1007.13 1006.42 1005.78 1006.23 1007.10 1007.16 1006.88 1006.78 1007.31 1006.79 1005.58 1004.57 1003.39 1003.63 1002.89 1001.80 1002.74 1003.07 1003.64 1003.68 1003.93 1004.12 1004.28
1016.17 1015.10 1014.27 1014.32 1014.40 1014.07 1012.79 1011.09 1009.25 1009.51 1009.81 1009.62 1009.26 1008.72 1008.08 1008.61 1008.94 1008.28 1007.90 1007.27 1006.94 1007.27 1007.42 1006.57 1006.27 1006.55 1007.49 1007.36 1007.79 1006.86 1007.58 1007.58 1007.10 1006.21 1005.09 1003.69 1002.61 1002.46 1002.50 1003.21 1003.40 1003.54 1003.90 1003.73 1003.92
1015.54 1014.14 1013.30 1014.17 1014.32 1013.60 1012.13 1010.53 1010.00 1010.19 1010.28 1010.16 1009.50 1009.02 1008.38 1008.22 1008.68 1008.25 1007.69 1007.46 1007.41 1007.69 1007.85 1007.31 1006.93 1006.87 1007.24 1008.16 1007.83 1007.69 1007.39 1007.84 1007.98 1006.54 1004.55 1002.80 1001.79 1001.42 1002.17 1002.58 1003.09 1003.33 1003.30 1003.42 1003.65
1015.41 1013.48 1013.92 1014.10 1013.96 1012.59 1011.31 1010.10 1010.46 1010.31 1010.69 1010.43 1009.74 1009.25 1008.96 1008.77 1008.59 1008.36 1007.81 1007.83 1008.02 1007.90 1008.43 1008.08 1008.07 1007.36 1007.82 1007.51 1006.94 1007.19 1007.49 1007.81 1007.56 1006.60 1005.00 1003.19 1001.40 1001.85 1002.54 1002.83 1003.10 1003.17 1003.24 1003.27 1003.19
1015.15 1012.99 1013.74 1013.83 1012.72 1012.29 1011.20 1011.17 1011.64 1010.73 1010.55 1010.48 1010.25 1009.78 1009.35 1009.04 1008.68 1008.46 1007.98 1007.87 1008.47 1008.63 1008.45 1008.45 1008.49 1007.35 1006.84 1006.56 1006.86 1007.26 1006.82 1006.58 1006.89 1005.87 1005.35 1004.25 1002.48 1002.31 1002.43 1002.95 1003.28 1003.20 1002.92 1002.75 1002.78
1015.16 1013.75 1013.62 1013.51 1012.39 1011.84 1011.51 1011.65 1011.61 1011.02 1010.76 1010.42 1010.18 1010.01 1009.75 1009.51 1009.22 1008.34 1008.33 1008.41 1008.87 1008.90 1008.64 1008.94 1008.65 1007.74 1006.50 1006.45 1007.62 1007.41 1007.07 1006.85 1006.42 1006.46 1005.39 1004.14 1001.87 1002.35 1001.99 1002.16 1002.40 1002.20 1002.17 1002.36 1002.32
1015.85 1013.76 1013.11 1013.29 1013.70 1013.34 1012.60 1011.69 1011.48 1011.42 1011.22 1011.11 1010.66 1010.50 1010.18 1009.80 1009.56 1008.72 1008.43 1008.88 1009.57 1009.48 1010.04 1010.12 1009.48 1008.67 1007.44 1006.43 1007.21 1006.96 1006.49 1006.40 1006.33 1006.02 1005.23 1003.19 1001.86 1001.89 1001.57 1001.65 1001.59 1001.81 1001.70 1001.68 1001.61
1016.52 1015.42 1015.64 1013.62 1013.22 1013.91 1013.65 1012.58 1011.80 1011.46 1011.57 1011.51 1010.70 1010.82 1010.47 1009.99 1009.35 1008.93 1008.96 1008.84 1009.38 1009.82 1010.25 1010.26 1009.52 1009.01 1008.08 1007.63 1007.39 1006.79 1006.34 1005.72 1005.33 1005.25 1003.78 1002.38 1001.60 1001.66 1001.32 1001.11 1001.09 1001.16 1001.13 1001.04 1001.01
1017.29 1016.78 1015.96 1014.85 1014.59 1014.19 1013.40 1012.33 1012.26 1012.05 1012.26 1011.38 1011.33 1011.20 1011.02 1010.83 1010.46 1009.81 1009.65 1009.70 1009.40 1009.46 1009.71 1009.93 1009.08 1009.31 1008.04 1007.49 1006.99 1006.30 1005.75 1004.64 1004.04 1003.44 1002.68 1002.04 1000.57 1000.83 1000.78 1000.61 1000.41 1000.41 1000.44 1000.22 1000.09
1018.84 1018.46 1017.65 1015.29 1014.41 1014.36 1013.20 1012.92 1012.70 1013.03 1012.40 1012.22 1012.14 1011.86 1011.58 1011.30 1011.15 1010.93 1010.67 1010.17 1009.88 1009.70 1009.51 1009.71 1009.92 1009.46 1008.01 1007.12 1006.34 1005.31 1003.69 1003.01 1002.28 1002.01 1001.55 1000.57 1000.07 999.99 999.75 999.98 1000.12 1000.28 1000.22 999.92 999.83
Wind_Speed
15 14 14 13 13 14 14 14 14 13 14 13 13 13 14 14 17 13 7 4 2 6 6 6 7 6 8 11 10 12 13 17 21 19 15 9 12 14 9 19 17 7 11 12 17
15 15 14 14 15 14 14 14 14 14 13 13 12 13 13 13 14 7 6 3 8 4 6 5 7 8 10 12 9 13 15 24 19 16 15 11 10 2 6 13 18 18 15 9 18
16 16 16 16 16 15 14 14 14 13 13 12 12 12 12 14 9 5 7 7 8 8 1 3 4 9 12 10 15 15 21 18 17 12 15 14 14 7 10 17 15 18 11 16 17
16 17 17 17 17 16 15 15 14 13 12 11 12 12 13 8 2 6 7 8 7 6 4 3 6 9 10 12 12 14 14 16 14 15 10 16 14 12 14 15 14 14 14 18 14
15 16 16 17 17 16 15 14 14 13 11 10 10 10 10 7 2 8 9 9 7 4 2 1 3 3 10 6 7 16 17 9 13 12 16 16 17 18 17 13 8 7 15 12 12
15 16 17 17 18 17 15 14 13 12 11 10 9 10 7 7 5 4 7 6 4 4 1 3 2 3 4 9 9 5 10 12 15 16 16 18 20 21 18 5 11 17 26 21 12
15 16 18 18 18 17 16 15 13 12 9 8 7 7 8 2 2 2 6 4 1 2 3 2 2 6 1 7 2 9 14 16 16 17 18 16 21 25 19 5 15 16 18 15 17
17 17 19 18 19 18 18 17 15 10 7 6 6 7 5 3 1 6 6 7 6 5 5 4 4 5 6 1 9 11 9 15 10 4 12 11 20 2 5 6 8 5 7 10 9
18 18 19 19 18 18 17 18 10 5 6 6 7 6 4 6 7 2 7 3 3 5 4 3 7 8 5 11 10 11 14 8 7 5 6 11 13 7 7 10 10 9 7 9 7
19 19 19 18 17 16 15 7 8 12 7 6 5 7 5 6 1 2 3 5 4 3 6 9 7 9 9 10 10 7 9 9 11 5 8 15 17 16 14 16 16 14 12 10 9
21 19 18 17 15 13 11 5 7 8 8 6 2 4 1 1 4 8 5 5 6 7 10 6 10 11 8 3 8 9 10 12 10 7 12 16 17 18 18 18 20 18 16 15 10
22 20 18 16 15 13 7 2 6 6 5 5 6 7 6 3 4 9 6 8 8 10 4 9 14 9 4 6 8 10 13 13 9 10 11 16 20 20 20 20 18 16 17 16 13
21 19 16 15 14 7 4 6 7 2 7 4 3 4 6 8 4 5 11 9 10 9 8 10 6 1 8 10 11 13 13 11 13 12 16 19 21 20 9 10 11 13 9 12 7
21 18 15 14 6 1 2 5 7 4 7 9 7 6 8 5 5 5 8 9 7 10 6 9 5 8 9 10 8 14 5 8 12 14 13 7 10 11 11 12 5 5 6 6 4
21 17 12 8 4 2 7 8 2 5 6 7 6 6 2 9 5 8 5 10 15 10 8 9 10 12 13 13 11 15 3 12 13 16 18 19 13 14 3 9 6 5 2 2 3
22 16 6 5 3 5 7 4 5 8 4 7 5 5 7 9 8 3 7 9 8 16 16 19 13 9 15 10 10 9 12 15 17 13 15 20 16 10 7 8 12 9 7 2 4
23 15 4 3 5 7 6 5 7 7 4 5 5 5 8 11 10 9 12 14 13 14 17 19 19 17 10 14 9 11 14 11 12 12 12 7 7 12 5 5 3 11 10 8 6
21 8 6 2 5 6 5 6 7 3 3 2 5 8 13 7 12 10 12 14 13 16 15 16 15 16 14 16 16 11 10 11 13 12 9 4 8 1 4 3 9 9 6 4 6
19 4 4 2 3 4 7 6 5 3 3 4 8 13 12 7 7 7 14 17 14 11 14 8 15 6 5 8 10 11 10 9 16 17 16 13 13 12 14 8 8 8 4 7 4
5 4 3 6 3 5 6 7 5 3 3 4 8 5 9 6 8 5 7 1 6 10 10 11 13 16 8 6 15 16 10 8 10 9 14 10 11 8 11 3 3 7 11 10 10
4 4 6 4 4 6 7 5 6 5 5 7 9 12 12 13 12 13 7 6 7 6 8 11 10 12 7 14 16 11 14 12 12 12 11 12 4 9 3 6 10 10 11 10 16
4 3 4 2 6 2 7 2 3 10 9 11 8 14 17 16 15 16 14 11 2 8 12 12 8 13 17 12 10 14 18 17 12 15 14 13 14 5 3 6 7 14 17 19 15
6 3 3 4 4 4 3 10 7 10 8 5 6 6 4 10 8 11 11 5 9 11 7 5 10 12 15 13 4 11 17 16 16 16 16 14 11 2 10 14 16 16 15 15 16
6 3 3 1 2 6 8 7 5 3 10 9 11 9 13 14 14 10 9 4 5 9 7 2 15 17 15 16 5 8 10 12 17 13 15 20 25 22 21 20 16 15 15 15 15
3 3 4 4 1 8 4 7 11 7 5 6 6 10 12 11 11 16 16 13 9 9 12 10 18 18 21 21 20 24 23 23 22 25 26 25 28 24 23 21 19 17 17 15 16
5 5 2 7 6 7 4 6 10 7 5 8 11 14 13 16 16 21 18 18 19 16 16 16 23 23 25 21 18 20 23 26 27 28 29 29 30 25 23 21 14 16 15 17 16
3 0 5 4 3 5 5 6 7 8 7 8 10 13 14 15 14 16 18 19 18 17 16 14 10 12 17 17 11 15 23 26 26 25 23 25 23 18 14 16 13 16 19 20 18
Wind_Direction
344 340 335 331 328 326 324 321 317 315 317 318 321 322 321 318 300 258 263 49 38 328 253 254 225 209 215 226 224 232 240 243 239 228 244 239 226 228 241 239 248 271 294 320 325
341 340 337 335 330 327 324 319 315 313 312 314 318 316 317 320 294 251 96 148 211 282 244 240 201 199 211 219 206 220 233 242 249 252 251 232 217 225 230 215 240 261 278 315 325
337 336 334 333 329 328 324 317 312 310 308 310 313 313 312 302 266 71 134 177 215 240 246 253 219 224 234 224 218 224 247 260 250 270 260 259 220 220 244 246 248 235 304 307 320
336 335 334 331 330 329 327 321 315 312 310 309 311 312 308 266 329 76 142 176 196 265 239 175 211 215 234 220 228 246 246 262 268 248 247 248 251 239 244 263 347 246 295 294 304
335 334 332 331 329 329 327 321 318 314 308 305 305 311 282 226 123 111 157 171 201 245 322 27 234 259 241 256 233 243 257 242 253 258 256 263 250 253 256 263 310 246 270 278 311
332 333 333 332 330 328 324 317 311 308 299 296 293 294 258 243 81 151 176 182 248 249 137 268 345 335 288 256 252 349 273 260 254 254 253 256 261 255 247 230 236 243 245 258 276
334 336 332 327 326 324 319 314 307 293 279 274 274 269 253 11 107 100 199 239 210 282 269 171 297 252 358 240 270 268 265 249 243 247 249 251 258 251 253 232 245 253 284 280 282
333 330 327 330 328 327 324 321 308 274 239 238 244 253 270 133 261 241 205 230 228 255 281 299 256 288 262 5 235 254 254 261 219 261 234 238 258 179 124 228 239 267 302 264 275
331 328 327 326 326 325 327 321 316 152 172 189 220 250 136 138 213 149 217 248 165 216 220 266 252 280 213 241 235 206 263 212 254 203 277 231 270 205 213 260 262 260 272 281 253
332 328 325 324 323 322 321 301 120 147 173 208 258 236 198 146 164 289 191 260 260 220 207 220 230 237 219 233 257 254 236 217 257 221 257 270 258 256 254 256 259 261 259 259 266
331 327 322 321 318 320 299 196 208 177 207 310 13 313 184 318 224 203 190 210 227 235 249 180 263 228 253 272 311 285 271 270 274 278 281 276 275 274 269 263 260 251 244 249 235
332 327 323 317 314 314 262 352 36 342 291 220 254 258 256 282 231 211 204 222 209 249 210 235 240 264 256 251 258 252 262 264 280 262 280 282 277 280 269 263 258 263 251 235 233
334 328 322 315 314 269 44 48 331 242 261 147 210 227 192 207 240 232 205 223 240 245 236 273 13 167 216 238 251 247 264 284 291 304 276 268 274 252 244 250 247 256 259 238 214
337 331 322 313 279 77 114 348 319 226 264 141 182 155 181 232 235 218 220 226 222 260 239 263 176 221 235 257 261 274 268 279 280 282 285 324 289 283 265 246 246 165 173 192 194
340 338 325 301 354 260 2 327 314 230 264 132 142 96 178 236 6 165 215 221 253 227 231 246 210 217 247 270 289 270 273 278 283 282 284 267 256 269 219 203 183 183 85 318 312
342 338 318 209 235 20 326 302 228 230 249 169 171 201 229 209 235 251 223 222 277 265 238 256 264 257 265 287 270 276 265 261 258 261 259 252 249 262 184 227 165 187 337 228 286
339 331 239 299 2 334 309 221 232 253 106 176 220 222 262 262 251 243 251 233 238 238 240 237 235 235 251 249 208 241 257 269 259 209 253 88 272 261 260 256 237 310 296 269 282
331 312 181 301 323 306 254 228 256 64 243 86 264 262 261 272 246 260 257 253 227 260 267 274 259 205 206 237 267 249 256 276 284 274 280 229 257 113 40 266 305 285 294 270 229
312 189 221 94 321 273 251 229 309 354 5 288 287 263 260 227 263 249 263 265 266 209 246 266 254 198 252 240 240 263 228 290 284 268 266 257 253 237 217 221 221 239 219 270 280
300 236 162 338 245 246 247 269 285 255 281 253 276 261 269 231 239 242 274 312 267 249 249 273 273 257 243 231 244 251 279 218 209 263 261 252 256 266 187 311 248 241 258 277 273
255 246 81 334 224 232 254 284 291 268 247 257 262 263 269 276 278 274 264 271 239 231 244 269 251 268 202 234 257 183 226 227 281 257 263 279 272 79 235 284 299 293 291 278 300
297 247 68 249 260 247 261 322 13 270 259 262 265 267 271 272 271 267 261 257 166 287 241 239 278 266 264 274 265 259 275 243 231 234 225 265 278 1 15 333 297 268 274 284 288
322 312 119 289 272 261 283 276 268 274 263 252 260 243 294 271 274 256 269 311 303 257 257 232 240 262 249 206 230 242 244 249 249 252 259 270 253 202 225 302 302 298 292 280 279
293 303 156 78 18 317 325 284 261 234 272 266 272 273 268 262 253 265 266 244 269 271 47 295 263 258 270 293 270 247 263 242 240 234 242 254 277 272 284 298 298 301 294 278 275
351 44 5 302 271 314 274 288 296 292 234 266 260 257 283 276 268 269 272 271 272 256 243 228 259 260 266 272 273 276 269 264 236 234 253 275 270 276 281 290 298 295 291 284 271
334 334 201 286 293 276 247 286 297 303 262 278 266 294 291 274 277 289 298 284 276 273 268 257 262 264 267 266 261 268 267 263 256 256 259 262 268 276 277 272 279 300 293 290 283
16 275 279 274 263 283 295 301 300 305 276 269 295 293 279 284 302 295 288 281 270 272 257 249 253 263 259 260 273 257 252 248 250 252 254 258 264 272 297 289 297 303 294 290 288